Simultaneous Nadir Overpasses (SNOs) Predictions

Prediction of SNOs between NOAA-19 and NPP Satellite Orbit:

Table of predicted SNOs for the next 14.0 days since TLE Epoch: 1/4/2014
Index Date (NOAA-19) Time (NOAA-19) Lat,Lon (NOAA-19) SZA (NOAA-19 ) Date (NPP) Time (NPP) Lat,Lon (NPP) SZA (NPP ) Distance(km) Time Diff (sec)
1 01/13/2014 20:04:05 80.99,-175.09 106.18 01/13/2014 20:05:12 80.99,-175.02 106.13 1.17 67
2 01/13/2014 20:55:01 -80.98, -7.52 73.88 01/13/2014 20:55:56 -80.98, -7.45 73.92 1.24 55
3 01/13/2014 21:46:08 80.98, 159.79 106.11 01/13/2014 21:46:41 80.98, 159.96 106.07 3.00 33
4 01/13/2014 22:37:04 -80.97, -32.64 73.94 01/13/2014 22:37:25 -80.97, -32.46 73.98 3.12 21
5 01/13/2014 23:28:10 80.96, 135.04 105.99 01/13/2014 23:28:10 80.96, 134.94 106.01 1.74 0
6 01/14/2014 00:19:06 -80.95, -57.40 74.06 01/14/2014 00:18:54 -80.95, -57.48 74.04 1.56 12
7 01/14/2014 01:10:13 80.95, 109.91 105.92 01/14/2014 01:09:39 80.95, 109.92 105.94 0.16 34
8 01/14/2014 02:01:09 -80.94, -82.52 74.13 01/14/2014 02:00:23 -80.94, -82.51 74.11 0.33 46




NCC Satellite Simultaneous Nadir Overpasses (SNOs) Prediction Service
